Time,TemperatureF,DewpointF,PressureIn,WindDirection,WindDirectionDegrees,WindSpeedMPH,WindSpeedGustMPH,Humidity,HourlyPrecipIn,Conditions,Clouds,dailyrainin,SoftwareType,DateUTC
2013-03-02 00:01:00,40.0,22.0,30.40,NE,53,0.0,0.0,48,0.00,,,-99.99,,2013-03-02 07:01:00,
2013-03-02 00:11:00,39.0,22.0,30.40,NE,53,0.0,0.0,50,0.00,,,-99.99,,2013-03-02 07:11:00,
2013-03-02 00:21:00,39.0,22.0,30.40,NE,53,0.0,0.0,50,0.00,,,-99.99,,2013-03-02 07:21:00,
2013-03-02 00:32:00,40.0,23.0,30.41,East,99,6.0,0.0,50,0.00,,,-99.99,,2013-03-02 07:32:00,
2013-03-02 00:42:00,40.0,23.0,30.41,East,99,6.0,0.0,50,0.00,,,-99.99,,2013-03-02 07:42:00,
2013-03-02 00:52:00,38.0,22.0,30.41,ESE,104,4.0,9.0,53,0.00,,,-99.99,,2013-03-02 07:52:00,
2013-03-02 01:01:00,38.0,22.0,30.42,ESE,106,7.0,9.0,53,0.00,,,-99.99,,2013-03-02 08:01:00,
2013-03-02 01:11:00,38.0,22.0,30.42,ESE,106,7.0,9.0,53,0.00,,,-99.99,,2013-03-02 08:11:00,
2013-03-02 01:21:00,40.0,22.0,30.42,East,94,0.0,0.0,49,0.00,,,-99.99,,2013-03-02 08:21:00,
2013-03-02 01:32:00,38.0,22.0,30.43,East,94,0.0,0.0,52,0.00,,,-99.99,,2013-03-02 08:32:00,
2013-03-02 01:42:00,38.0,22.0,30.43,East,94,0.0,0.0,52,0.00,,,-99.99,,2013-03-02 08:42:00,
2013-03-02 01:52:00,38.0,22.0,30.43,East,92,5.0,7.0,52,0.00,,,-99.99,,2013-03-02 08:52:00,
2013-03-02 02:01:00,38.0,22.0,30.43,East,95,6.0,6.0,52,0.00,,,-99.99,,2013-03-02 09:01:00,
2013-03-02 02:11:00,38.0,22.0,30.43,ESE,105,5.0,5.0,51,0.00,,,-99.99,,2013-03-02 09:11:00,
2013-03-02 02:21:00,38.0,22.0,30.43,ESE,105,5.0,5.0,51,0.00,,,-99.99,,2013-03-02 09:21:00,
2013-03-02 02:31:00,37.0,21.0,30.43,East,101,5.0,7.0,53,0.00,,,-99.99,,2013-03-02 09:31:00,
2013-03-02 02:42:00,37.0,21.0,30.43,East,101,5.0,7.0,53,0.00,,,-99.99,,2013-03-02 09:42:00,
2013-03-02 02:52:00,37.0,22.0,30.43,ESE,108,6.0,6.0,55,0.00,,,-99.99,,2013-03-02 09:52:00,
2013-03-02 03:01:00,37.0,22.0,30.43,East,98,4.0,6.0,55,0.00,,,-99.99,,2013-03-02 10:01:00,
2013-03-02 03:16:00,37.0,22.0,30.43,East,98,4.0,6.0,55,0.00,,,-99.99,,2013-03-02 10:16:00,
2013-03-02 03:22:00,35.0,23.0,30.43,East,97,7.0,7.0,60,0.00,,,-99.99,,2013-03-02 10:22:00,
2013-03-02 03:31:00,34.0,22.0,30.43,ESE,102,7.0,7.0,61,0.00,,,-99.99,,2013-03-02 10:31:00,
2013-03-02 03:42:00,34.0,22.0,30.43,ESE,102,7.0,7.0,61,0.00,,,-99.99,,2013-03-02 10:42:00,
2013-03-02 03:52:00,34.0,22.0,30.44,East,101,7.0,8.0,62,0.00,,,-99.99,,2013-03-02 10:52:00,
2013-03-02 04:01:00,34.0,22.0,30.44,East,85,6.0,7.0,60,0.00,,,-99.99,,2013-03-02 11:01:00,
2013-03-02 04:11:00,34.0,22.0,30.44,East,85,6.0,7.0,60,0.00,,,-99.99,,2013-03-02 11:11:00,
2013-03-02 04:21:00,34.0,22.0,30.45,East,101,7.0,9.0,61,0.00,,,-99.99,,2013-03-02 11:21:00,
2013-03-02 04:32:00,36.0,22.0,30.45,ENE,71,4.0,7.0,57,0.00,,,-99.99,,2013-03-02 11:32:00,
2013-03-02 04:41:00,36.0,22.0,30.45,ENE,71,4.0,7.0,57,0.00,,,-99.99,,2013-03-02 11:41:00,
2013-03-02 04:52:00,37.0,22.0,30.45,East,81,4.0,6.0,54,0.00,,,-99.99,,2013-03-02 11:52:00,
2013-03-02 05:02:00,36.0,22.0,30.45,ENE,60,4.0,7.0,57,0.00,,,-99.99,,2013-03-02 12:02:00,
2013-03-02 05:11:00,36.0,22.0,30.45,ENE,60,4.0,7.0,57,0.00,,,-99.99,,2013-03-02 12:11:00,
2013-03-02 05:21:00,37.0,22.0,30.45,NE,50,4.0,6.0,54,0.00,,,-99.99,,2013-03-02 12:21:00,
2013-03-02 05:33:00,36.0,21.0,30.46,NE,35,5.0,5.0,55,0.00,,,-99.99,,2013-03-02 12:33:00,
2013-03-02 05:43:00,36.0,21.0,30.46,NE,35,5.0,5.0,55,0.00,,,-99.99,,2013-03-02 12:43:00,
2013-03-02 05:53:00,36.0,22.0,30.46,NE,54,4.0,9.0,56,0.00,,,-99.99,,2013-03-02 12:53:00,
2013-03-02 06:01:00,34.0,22.0,30.46,East,99,5.0,6.0,60,0.00,,,-99.99,,2013-03-02 13:01:00,
2013-03-02 06:11:00,34.0,22.0,30.46,East,99,5.0,6.0,60,0.00,,,-99.99,,2013-03-02 13:11:00,
2013-03-02 06:21:00,34.0,22.0,30.47,ENE,63,3.0,3.0,60,0.00,,,-99.99,,2013-03-02 13:21:00,
2013-03-02 06:31:00,34.0,21.0,30.47,East,81,5.0,6.0,59,0.00,,,-99.99,,2013-03-02 13:31:00,
2013-03-02 06:41:00,34.0,21.0,30.47,East,81,5.0,6.0,59,0.00,,,-99.99,,2013-03-02 13:41:00,
2013-03-02 06:52:00,34.0,22.0,30.47,East,94,5.0,6.0,60,0.00,,,-99.99,,2013-03-02 13:52:00,
2013-03-02 07:01:00,33.0,21.0,30.47,East,81,3.0,5.0,62,0.00,,,-99.99,,2013-03-02 14:01:00,
2013-03-02 07:11:00,33.0,21.0,30.47,East,81,3.0,5.0,62,0.00,,,-99.99,,2013-03-02 14:11:00,
2013-03-02 07:21:00,34.0,22.0,30.48,East,98,7.0,7.0,62,0.00,,,-99.99,,2013-03-02 14:21:00,
2013-03-02 07:32:00,34.0,23.0,30.49,East,85,4.0,6.0,63,0.00,,,-99.99,,2013-03-02 14:32:00,
2013-03-02 07:42:00,34.0,23.0,30.49,East,85,4.0,6.0,63,0.00,,,-99.99,,2013-03-02 14:42:00,
2013-03-02 07:52:00,36.0,22.0,30.49,NNE,16,2.0,4.0,57,0.00,,,-99.99,,2013-03-02 14:52:00,
2013-03-02 08:02:00,38.0,22.0,30.48,North,11,3.0,6.0,52,0.00,,,-99.99,,2013-03-02 15:02:00,
2013-03-02 08:11:00,38.0,22.0,30.48,North,11,3.0,6.0,52,0.00,,,-99.99,,2013-03-02 15:11:00,
2013-03-02 08:21:00,40.0,23.0,30.46,North,5,6.0,6.0,50,0.00,,,-99.99,,2013-03-02 15:21:00,
2013-03-02 08:31:00,41.0,22.0,30.45,North,358,5.0,6.0,47,0.00,,,-99.99,,2013-03-02 15:31:00,
2013-03-02 08:42:00,41.0,22.0,30.45,North,358,5.0,6.0,47,0.00,,,-99.99,,2013-03-02 15:42:00,
2013-03-02 08:52:00,42.0,23.0,30.44,NNE,19,10.0,11.0,46,0.00,,,-99.99,,2013-03-02 15:52:00,
2013-03-02 09:01:00,42.0,22.0,30.43,North,7,9.0,12.0,45,0.00,,,-99.99,,2013-03-02 16:01:00,
2013-03-02 09:11:00,42.0,22.0,30.43,North,7,9.0,12.0,45,0.00,,,-99.99,,2013-03-02 16:11:00,
2013-03-02 09:21:00,43.0,22.0,30.42,North,9,9.0,13.0,43,0.00,,,-99.99,,2013-03-02 16:21:00,
2013-03-02 09:31:00,44.0,22.0,30.42,North,350,9.0,13.0,42,0.00,,,-99.99,,2013-03-02 16:31:00,
2013-03-02 09:41:00,44.0,22.0,30.42,North,350,9.0,13.0,42,0.00,,,-99.99,,2013-03-02 16:41:00,
2013-03-02 09:52:00,45.0,23.0,30.40,North,358,7.0,10.0,41,0.00,,,-99.99,,2013-03-02 16:52:00,
2013-03-02 10:01:00,46.0,23.0,30.39,NNE,19,8.0,12.0,40,0.00,,,-99.99,,2013-03-02 17:01:00,
2013-03-02 10:11:00,47.0,23.0,30.38,NNW,345,4.0,10.0,38,0.00,,,-99.99,,2013-03-02 17:11:00,
2013-03-02 10:21:00,47.0,23.0,30.38,NNW,345,4.0,10.0,38,0.00,,,-99.99,,2013-03-02 17:21:00,
2013-03-02 10:32:00,47.0,21.0,30.37,NNW,341,7.0,11.0,36,0.00,,,-99.99,,2013-03-02 17:32:00,
2013-03-02 10:42:00,47.0,21.0,30.37,NNW,341,7.0,11.0,36,0.00,,,-99.99,,2013-03-02 17:42:00,
2013-03-02 10:52:00,48.0,22.0,30.36,NNW,333,6.0,9.0,36,0.00,,,-99.99,,2013-03-02 17:52:00,
2013-03-02 11:01:00,49.0,22.0,30.35,ENE,66,6.0,8.0,34,0.00,,,-99.99,,2013-03-02 18:01:00,
2013-03-02 11:11:00,49.0,22.0,30.35,ENE,66,6.0,8.0,34,0.00,,,-99.99,,2013-03-02 18:11:00,
2013-03-02 11:22:00,50.0,23.0,30.33,NNW,338,3.0,9.0,34,0.00,,,-99.99,,2013-03-02 18:22:00,
2013-03-02 11:32:00,51.0,22.0,30.32,NW,316,9.0,10.0,32,0.00,,,-99.99,,2013-03-02 18:32:00,
2013-03-02 11:42:00,51.0,22.0,30.32,NW,316,9.0,10.0,32,0.00,,,-99.99,,2013-03-02 18:42:00,
2013-03-02 11:52:00,52.0,22.0,30.32,North,351,9.0,12.0,31,0.00,,,-99.99,,2013-03-02 18:52:00,
2013-03-02 12:01:00,52.0,22.0,30.30,NNE,23,9.0,14.0,31,0.00,,,-99.99,,2013-03-02 19:01:00,
2013-03-02 12:11:00,52.0,22.0,30.30,NNE,23,9.0,14.0,31,0.00,,,-99.99,,2013-03-02 19:11:00,
2013-03-02 12:21:00,53.0,22.0,30.29,NNE,16,7.0,13.0,29,0.00,,,-99.99,,2013-03-02 19:21:00,
2013-03-02 12:31:00,54.0,22.0,30.28,North,11,6.0,12.0,28,0.00,,,-99.99,,2013-03-02 19:31:00,
2013-03-02 12:42:00,54.0,22.0,30.28,North,11,6.0,12.0,28,0.00,,,-99.99,,2013-03-02 19:42:00,
2013-03-02 12:52:00,56.0,22.0,30.26,NNW,330,4.0,10.0,26,0.00,,,-99.99,,2013-03-02 19:52:00,
2013-03-02 13:01:00,57.0,22.0,30.25,WNW,300,6.0,9.0,25,0.00,,,-99.99,,2013-03-02 20:01:00,
2013-03-02 13:11:00,57.0,22.0,30.25,WNW,300,6.0,9.0,25,0.00,,,-99.99,,2013-03-02 20:11:00,
2013-03-02 13:22:00,57.0,21.0,30.24,NNE,33,7.0,11.0,24,0.00,,,-99.99,,2013-03-02 20:22:00,
2013-03-02 13:32:00,57.0,20.0,30.23,North,9,5.0,9.0,23,0.00,,,-99.99,,2013-03-02 20:32:00,
2013-03-02 13:42:00,57.0,20.0,30.23,North,9,5.0,9.0,23,0.00,,,-99.99,,2013-03-02 20:42:00,
2013-03-02 13:52:00,58.0,18.0,30.22,WNW,295,7.0,8.0,21,0.00,,,-99.99,,2013-03-02 20:52:00,
2013-03-02 14:02:00,60.0,19.0,30.21,SW,217,6.0,10.0,20,0.00,,,-99.99,,2013-03-02 21:02:00,
2013-03-02 14:11:00,60.0,19.0,30.21,SW,217,6.0,10.0,20,0.00,,,-99.99,,2013-03-02 21:11:00,
2013-03-02 14:22:00,60.0,18.0,30.20,West,271,6.0,10.0,19,0.00,,,-99.99,,2013-03-02 21:22:00,
2013-03-02 14:32:00,60.0,19.0,30.19,WNW,296,8.0,15.0,20,0.00,,,-99.99,,2013-03-02 21:32:00,
2013-03-02 14:42:00,60.0,19.0,30.19,WNW,296,8.0,15.0,20,0.00,,,-99.99,,2013-03-02 21:42:00,
2013-03-02 14:52:00,60.0,18.0,30.19,SW,232,5.0,10.0,19,0.00,,,-99.99,,2013-03-02 21:52:00,
2013-03-02 15:02:00,61.0,17.0,30.18,West,279,5.0,11.0,18,0.00,,,-99.99,,2013-03-02 22:02:00,
2013-03-02 15:11:00,61.0,17.0,30.18,West,279,5.0,11.0,18,0.00,,,-99.99,,2013-03-02 22:11:00,
2013-03-02 15:21:00,60.0,18.0,30.17,SW,225,7.0,12.0,19,0.00,,,-99.99,,2013-03-02 22:21:00,
2013-03-02 15:32:00,61.0,17.0,30.17,SSW,199,5.0,10.0,18,0.00,,,-99.99,,2013-03-02 22:32:00,
2013-03-02 15:42:00,61.0,17.0,30.17,SSW,199,5.0,10.0,18,0.00,,,-99.99,,2013-03-02 22:42:00,
2013-03-02 15:52:00,62.0,17.0,30.16,WSW,240,5.0,13.0,17,0.00,,,-99.99,,2013-03-02 22:52:00,
2013-03-02 16:01:00,62.0,17.0,30.16,SSW,194,4.0,9.0,17,0.00,,,-99.99,,2013-03-02 23:01:00,
2013-03-02 16:11:00,62.0,17.0,30.15,SSW,199,6.0,13.0,17,0.00,,,-99.99,,2013-03-02 23:11:00,
2013-03-02 16:21:00,62.0,17.0,30.15,SSW,199,6.0,13.0,17,0.00,,,-99.99,,2013-03-02 23:21:00,
2013-03-02 16:32:00,62.0,17.0,30.15,SSW,209,6.0,12.0,17,0.00,,,-99.99,,2013-03-02 23:32:00,
2013-03-02 16:42:00,62.0,17.0,30.15,SSW,209,6.0,12.0,17,0.00,,,-99.99,,2013-03-02 23:42:00,
2013-03-02 16:52:00,62.0,17.0,30.15,SW,226,3.0,9.0,17,0.00,,,-99.99,,2013-03-02 23:52:00,
2013-03-02 17:02:00,63.0,18.0,30.14,SW,234,0.0,7.0,17,0.00,,,-99.99,,2013-03-03 00:02:00,
2013-03-02 17:11:00,63.0,18.0,30.14,SW,234,0.0,7.0,17,0.00,,,-99.99,,2013-03-03 00:11:00,
2013-03-02 17:22:00,63.0,16.0,30.14,WNW,300,1.0,8.0,16,0.00,,,-99.99,,2013-03-03 00:22:00,
2013-03-02 17:32:00,63.0,16.0,30.14,WSW,251,0.0,5.0,16,0.00,,,-99.99,,2013-03-03 00:32:00,
2013-03-02 17:42:00,63.0,16.0,30.14,WSW,251,0.0,5.0,16,0.00,,,-99.99,,2013-03-03 00:42:00,
2013-03-02 17:52:00,63.0,18.0,30.14,West,265,0.0,6.0,17,0.00,,,-99.99,,2013-03-03 00:52:00,
2013-03-02 18:01:00,62.0,17.0,30.14,West,265,0.0,0.0,17,0.00,,,-99.99,,2013-03-03 01:01:00,
2013-03-02 18:11:00,62.0,17.0,30.14,West,265,0.0,0.0,17,0.00,,,-99.99,,2013-03-03 01:11:00,
2013-03-02 18:21:00,61.0,18.0,30.15,West,264,0.0,0.0,19,0.00,,,-99.99,,2013-03-03 01:21:00,
2013-03-02 18:32:00,59.0,18.0,30.16,West,264,0.0,0.0,20,0.00,,,-99.99,,2013-03-03 01:32:00,
2013-03-02 18:41:00,59.0,18.0,30.16,West,264,0.0,0.0,20,0.00,,,-99.99,,2013-03-03 01:41:00,
2013-03-02 18:52:00,59.0,18.0,30.17,West,264,0.0,0.0,20,0.00,,,-99.99,,2013-03-03 01:52:00,
2013-03-02 19:01:00,58.0,18.0,30.17,West,264,0.0,0.0,21,0.00,,,-99.99,,2013-03-03 02:01:00,
2013-03-02 19:11:00,58.0,19.0,30.18,West,264,0.0,0.0,22,0.00,,,-99.99,,2013-03-03 02:11:00,
2013-03-02 19:21:00,58.0,19.0,30.18,West,264,0.0,0.0,22,0.00,,,-99.99,,2013-03-03 02:21:00,
2013-03-02 19:31:00,56.0,21.0,30.19,SSE,160,0.0,4.0,25,0.00,,,-99.99,,2013-03-03 02:31:00,
2013-03-02 19:42:00,56.0,21.0,30.19,SSE,160,0.0,4.0,25,0.00,,,-99.99,,2013-03-03 02:42:00,
2013-03-02 19:52:00,55.0,21.0,30.20,SSE,160,0.0,4.0,26,0.00,,,-99.99,,2013-03-03 02:52:00,
2013-03-02 20:01:00,54.0,21.0,30.20,SE,137,4.0,4.0,27,0.00,,,-99.99,,2013-03-03 03:01:00,
2013-03-02 20:11:00,54.0,21.0,30.20,SE,137,4.0,4.0,27,0.00,,,-99.99,,2013-03-03 03:11:00,
2013-03-02 20:21:00,55.0,21.0,30.21,South,181,2.0,4.0,26,0.00,,,-99.99,,2013-03-03 03:21:00,
2013-03-02 20:31:00,53.0,23.0,30.21,East,94,7.0,8.0,31,0.00,,,-99.99,,2013-03-03 03:31:00,
2013-03-02 20:41:00,53.0,23.0,30.21,East,94,7.0,8.0,31,0.00,,,-99.99,,2013-03-03 03:41:00,
2013-03-02 20:52:00,51.0,22.0,30.21,SE,126,5.0,7.0,32,0.00,,,-99.99,,2013-03-03 03:52:00,
2013-03-02 21:01:00,52.0,22.0,30.22,ESE,122,4.0,5.0,30,0.00,,,-99.99,,2013-03-03 04:01:00,
2013-03-02 21:11:00,52.0,22.0,30.22,ESE,122,4.0,5.0,30,0.00,,,-99.99,,2013-03-03 04:11:00,
2013-03-02 21:21:00,49.0,23.0,30.23,SE,127,0.0,6.0,35,0.00,,,-99.99,,2013-03-03 04:21:00,
2013-03-02 21:32:00,51.0,22.0,30.23,SE,125,5.0,5.0,32,0.00,,,-99.99,,2013-03-03 04:32:00,
2013-03-02 21:41:00,51.0,22.0,30.23,SE,125,5.0,5.0,32,0.00,,,-99.99,,2013-03-03 04:41:00,
2013-03-02 21:52:00,49.0,23.0,30.23,East,94,8.0,8.0,35,0.00,,,-99.99,,2013-03-03 04:52:00,
2013-03-02 22:01:00,47.0,22.0,30.23,East,98,8.0,8.0,37,0.00,,,-99.99,,2013-03-03 05:01:00,
2013-03-02 22:11:00,47.0,22.0,30.23,East,98,8.0,8.0,37,0.00,,,-99.99,,2013-03-03 05:11:00,
2013-03-02 22:22:00,46.0,23.0,30.23,ESE,102,8.0,9.0,40,0.00,,,-99.99,,2013-03-03 05:22:00,
2013-03-02 22:32:00,47.0,22.0,30.23,ESE,113,7.0,10.0,37,0.00,,,-99.99,,2013-03-03 05:32:00,
2013-03-02 22:42:00,47.0,22.0,30.23,ESE,113,7.0,10.0,37,0.00,,,-99.99,,2013-03-03 05:42:00,
2013-03-02 22:52:00,48.0,22.0,30.23,ESE,116,6.0,8.0,35,0.00,,,-99.99,,2013-03-03 05:52:00,
2013-03-02 23:01:00,48.0,22.0,30.22,ESE,112,5.0,8.0,35,0.00,,,-99.99,,2013-03-03 06:01:00,
2013-03-02 23:11:00,48.0,22.0,30.22,ESE,112,5.0,8.0,35,0.00,,,-99.99,,2013-03-03 06:11:00,
2013-03-02 23:21:00,48.0,21.0,30.22,ESE,119,7.0,7.0,34,0.00,,,-99.99,,2013-03-03 06:21:00,
2013-03-02 23:31:00,47.0,22.0,30.22,ESE,109,7.0,7.0,37,0.00,,,-99.99,,2013-03-03 06:31:00,
2013-03-02 23:42:00,47.0,22.0,30.22,ESE,109,7.0,7.0,37,0.00,,,-99.99,,2013-03-03 06:42:00,
2013-03-02 23:52:00,45.0,22.0,30.21,East,99,8.0,8.0,40,0.00,,,-99.99,,2013-03-03 06:52:00,